Location: Unspecified
(0.0000°N, 0.0000°E)
Time: 07:54:46
(UTC+02:00)

Ariane H10 - Visible Passes

Search period start: 22 August 2014 00:00
Search period end: 01 September 2014 00:00
Orbit: 483 x 34933 km, 7.1° (Epoch: 18 August)

Date Brightness Start Highest point End Pass type
(mag) Time Alt. Az. Time Alt. Az. Time Alt. Az.
22 Aug 7.7 05:38:42 38° WNW 06:17:02 87° NNE 15:16:09 10° E visible
23 Aug 7.9 02:19:01 42° ENE 02:19:01 42° ENE 11:37:08 10° E visible
25 Aug 7.4 05:59:49 31° W 07:16:37 90° SSW 15:37:55 10° E visible
26 Aug 7.8 02:40:07 52° ENE 02:40:07 52° ENE 12:01:16 10° E visible
28 Aug 7.1 06:20:52 24° W 07:59:47 82° W 15:59:30 10° E visible
29 Aug 7.8 03:01:10 63° ENE 03:01:10 63° ENE 12:24:40 10° E visible
30 Aug 12.3 05:21:41 10° E 07:01:43 16° E 08:04:03 10° E visible
31 Aug 6.9 06:41:53 18° W 16:10:02 79° S 16:20:53 10° E visible
